Location: De Har
(53.3413°N, 6.6858°E)
Time: 17:34:02
(UTC+00:00)

Cosmos 1812 Rocket - Pass Details

Date: 22 April 2026
Orbit: 600 x 623 km, 82.5° (Epoch: 9 May)

Event Time Altitude Azimuth Distance (km) Brightness Sun altitude
Exits shadow 01:49:36 25° 164° (SSE) 1,227 4.7 -18.2°
Maximum altitude 01:51:54 56° 96° (E) 723 4.0 -18.0°
Drops below altitude 10° 01:56:10 10° 18° (NNE) 1,972 7.2 -17.6°
Sets 01:58:26 0° 15° (NNE) 2,885 8.2 -17.4°
